Home > Weather > Rancho Cucamonga > Past weeks

Flag for U.S.A. Weather for the Past 2 Weeks in Rancho Cucamonga, California, U.S.A.

Now
65 °F

Clear.


Feels Like: 65 °F
Forecast: 50 / 77 °F
Wind: No wind

Location: Ontario International Airport

Current Time: Feb 6, 2016 at 8:29:25 PM

Latest Report: Feb 6, 2016 at 6:53 PM


Visibility: 10 mi

Pressure: 30.15 "Hg

Humidity: 20%

Dew point: 23 °F

Location of Rancho CucamongaLocation

Historic Weather in Rancho Cucamonga — Graph

°F

Rancho Cucamonga Temperature Yesterday

Maximum temperature yesterday: 75 °F (at 1:53 PM)
Minimum temperature yesterday: 42 °F (at 5:53 AM)
Average temperature yesterday: 59 °F

High & Low Weather Summary for the Past Weeks

 TemperatureHumidityPressure
High76 °F (Feb 6, 2:53 PM)96% (Jan 24, 3:53 AM)30.37 "Hg (Jan 24, 3:53 AM)
Low34 °F (Feb 2, 1:53 AM)10% (Jan 28, 1:53 PM)29.59 "Hg (Jan 31, 1:53 PM)
Average54 °F50%30.12 "Hg
* Reported Jan 22 6:53 PM — Feb 6 6:53 PM, Rancho Cucamonga, Weather by CustomWeather, © 2016

Note: Actual official high and low records may vary slightly from our data, if they occured in-between our weather recording intervals... More about our weather records

Advertising

Rancho Cucamonga Weather History for the Previous 24 Hours

 ConditionsComfort  
Time TempWeatherWind HumidityBarometerVisibility
6:53 PM
Sat, Feb 6
65 °FClear.No wind20%30.15 "Hg10 mi
5:53 PM70 °FClear.No wind13%30.14 "Hg10 mi
4:53 PM74 °FSunny.No wind12%30.12 "Hg10 mi
3:53 PM76 °FSunny.No wind11%30.12 "Hg10 mi
2:53 PM76 °FSunny.7 mph11%30.13 "Hg10 mi
1:53 PM75 °FSunny.No wind10%30.15 "Hg10 mi
12:53 PM73 °FSunny.7 mph14%30.19 "Hg10 mi
11:53 AM71 °FSunny.5 mph16%30.23 "Hg10 mi
10:53 AM67 °FSunny.3 mph20%30.26 "Hg10 mi
9:53 AM63 °FSunny.3 mph25%30.27 "Hg10 mi
8:53 AM58 °FSunny.6 mph31%30.26 "Hg10 mi
7:53 AM51 °FPassing clouds.No wind41%30.26 "Hg10 mi
6:53 AM45 °FPassing clouds.6 mph48%30.26 "Hg10 mi
5:53 AM43 °FClear.No wind49%30.25 "Hg10 mi
4:53 AM48 °FClear.6 mph39%30.25 "Hg10 mi
3:53 AM46 °FClear.No wind48%30.26 "Hg10 mi
2:53 AM48 °FClear.No wind41%30.26 "Hg10 mi
1:53 AM50 °FClear.No wind38%30.27 "Hg10 mi
12:53 AM45 °FClear.5 mph53%30.28 "Hg10 mi
11:53 PM
Fri, Feb 5
51 °FClear.No wind38%30.28 "Hg10 mi
10:53 PM55 °FClear.3 mph31%30.27 "Hg10 mi
9:53 PM53 °FClear.3 mph35%30.28 "Hg10 mi
8:53 PM60 °FClear.5 mph19%30.27 "Hg10 mi
Weather by CustomWeather, © 2016

See weather overviewHow to use our weather pages